If you wish to contribute or participate in the discussions about articles you are invited to join SKYbrary as a registered user

 Actions

Amami

From SKYbrary Wiki

RJKA
Airport
ICAO: RJKA – IATA: ASJ
Summary
Name Amami
Region Asia and Pacific
Territory Japan JP.gif
Location Amami, Kagoshima Prefecture
Serving Amami
Elevation 26.822 m <br />88 ft26.822 m <br />
Coordinates 28° 25' 52.17" N, 129° 42' 43.61" E
Runways
Designator Length Width Surface ROPS
3/21 1999 m6,558.399 ft <br /> 46 m150.919 ft <br /> ASP yes/yes


METAR
Observation RJKA 230400Z 06012KT 9999 FEW020 29/22 Q1009
Station Amami Airport
Date/Time 23 June 2021 04:00:00
Wind direction 60°
Wind speed 12 kts
Lowest cloud amount few clouds
Temperature 29°C
Dew point 22°C
Humidity 66%
QNH 1009 hPa
Weather condition n/a

WX
Tag(s) Tropical Revolving Storm

Amami Airport is an airport located 21.9 km11.825 nm <br />21,900 m <br />71,850.394 ft <br /> east northeast Amami, a city on Amami Ōshima (Amami Island) in the Kagoshima Prefecture of Japan. It was previously named Amami Oshima Airport.

Climatology

Humid Sub-tropical climate (Köppen climate classification Cwa) - Hot humid summers and cooler winter. Significant precipitation in all seasons but drier in the winter.

Occasional Typhoons coming from South China Sea.

Maps

Terrain

Loading map...

Airport Layout

Loading map...


Accidents & Serious Incidents at or in vicinity of RJKA

None on SKYbrary